Location: Passau
(48.5830°N, 13.4830°E)
Time: 06:22:11
(UTC+02:00)

Vanguard 1 - Pass Details

Date: 27 July 2021
Orbit: 652 x 3831 km, 34.3° (Epoch: 16 September)

Event Time Altitude Azimuth Distance (km) Brightness Sun altitude
Rises 18:05:14 0° 265° (W) 4,832 15.0 25.2°
Reaches altitude 10° 18:08:36 10° 253° (WSW) 4,246 14.8 24.7°
Maximum altitude 18:18:08 27° 202° (SSW) 4,035 13.6 23.1°
Drops below altitude 10° 18:32:18 10° 155° (SSE) 6,399 14.0 20.7°
Sets 18:39:10 0° 145° (SE) 7,756 14.3 19.6°
